Regional Weather Roundup
Issued by NWS

Home | Current Version | Previous Version | Graphics & Text | Print | Product List | Glossary On
Versions: 1 2 3 4 5 6 7 8 9 10 11 12 13 14 15 16 17 18 19 20 21 22 23 24 25 26 27 28 29 30 31 32 33 34 35 36 37 38 39 40 41 42 43 44 45 46 47 48 49 50
000
ASUS43 KLOT 311058
RWRIL

ILLINOIS REGIONAL WEATHER ROUNDUP
NATIONAL WEATHER SERVICE CHICAGO/ROMEOVILLE IL
600 AM CDT FRI OCT 31 2014

NOTE: "FAIR" INDICATES FEW OR NO CLOUDS BELOW 12,000 FEET WITH NO
SIGNIFICANT WEATHER AND/OR OBSTRUCTIONS TO VISIBILITY.

* THESE STATIONS ARE NOT UNDER NWS QUALITY CONTROL. THEY ALSO MAY NOT
  REPORT WEATHER SUCH AS PRECIPITATION OR FOG.

ILZ001-002-007-009-015-016-024-311200-
NORTHWEST ILLINOIS

CITY           SKY/WX    TMP DP  RH WIND       PRES   REMARKS
MOLINE         PTCLDY    37  22  54 NW20G29   30.23R WCI  27
$$

ILZ003-004-008-010-011-017-018-311200-
NORTH CENTRAL ILLINOIS

CITY           SKY/WX    TMP DP  RH WIND       PRES   REMARKS
ROCKFORD       NOT AVBL
$$

ILZ005-006-012>014-019>023-311200-
NORTHEAST ILLINOIS

CITY           SKY/WX    TMP DP  RH WIND       PRES   REMARKS
CHICAGO-OHARE  CLOUDY    39  28  64 NW25G31   30.06R WCI  28
CHICAGO-MIDWAY NOT AVBL
AURORA         CLOUDY    38  28  67 NW25G33   30.10R WCI  27
WAUKEGAN       NOT AVBL
DUPAGE AIRPORT CLOUDY    39  28  64 NW25G36   30.08R WCI  28
WHEELING       CLOUDY    39  27  62 NW24G33   30.08R WCI  28
NORTHERLY ISL    N/A     43  31  63 NW12        N/A
$$

LMZ740>746-311200-
SOUTHERN LAKE MICHIGAN

STATION/POSITION SKY/WX   TEMP    WIND        PRES    VSBY  WAVE
                          AIR SEA DIR/SP/G                  HT/PER
                          (F)     (DEG/KT/KT) (MB)    (MI)  (FT/S)
SOUTHERN BUOY              45 53  320/ 27/ 33 1015.2R         6/ 6
WAUKEGAN HARBOR            39     330/ 16/ 25   N/A
HARRISON CRIB              43     320/ 25/ 30   N/A
BURNHAM HARBOR             43     330/ 16/ 23   N/A
CALUMET HARBOR             42     300/  6/ 20 1015.8R
MICHIGAN CITY              43     310/ 30/ 34   N/A
$$

ILZ025>027-034>036-040-047-049-050-058-095>099-311200-
WEST-CENTRAL ILLINOIS

CITY           SKY/WX    TMP DP  RH WIND       PRES   REMARKS
QUINCY         CLOUDY    44  29  55 N22G28    30.21R
$$

ILZ028>032-037-038-041>044-048-051>054-059>061-311200-
CENTRAL ILLINOIS

CITY           SKY/WX    TMP DP  RH WIND       PRES   REMARKS
PEORIA         NOT AVBL
SPRINGFIELD    CLOUDY    47  35  63 NW25G37   30.14R
TAYLORVILLE    NOT AVBL
$$

ILZ033-039-045-046-055>057-062-063-311200-
EAST-CENTRAL ILLINOIS

CITY           SKY/WX    TMP DP  RH WIND       PRES   REMARKS
CHAMPAIGN      CLOUDY    45  41  86 NW15      30.06R
MATTOON        CLOUDY    44  41  89 NW9       30.05R
$$

ILZ079-100>102-311200-
SOUTHWEST ILLINOIS

CITY           SKY/WX    TMP DP  RH WIND       PRES   REMARKS
CAHOKIA*       CLOUDY    49  44  83 N10       30.14R
$$

ILZ064>066-069>071-074>076-080>082-084>086-088>090-092>094-311200-
SOUTH-CENTRAL ILLINOIS

CITY           SKY/WX    TMP DP  RH WIND       PRES   REMARKS
CARBONDALE     CLOUDY    50  47  89 NW8       30.06R
$$

ILZ067-068-072-073-078-083-087-091-311200-
SOUTHEAST ILLINOIS

CITY           SKY/WX    TMP DP  RH WIND       PRES   REMARKS
LAWRENCEVILLE  CLOUDY    46  44  93 NW7       30.05R
$$

ABBREVIATIONS USED IN REMARKS
   TC - TEMPERATURE IN CELSIUS
  WCI - WIND CHILL INDEX
   HX - HEAT INDEX
  VSB - VISIBILITY
$$




USA.gov is the U.S. government's official web portal to all federal, state and local government web resources and services.